When you browse on this site, cookies collect data to enhance your experience and personalize the content and advertising you see.
Visit our Privacy Policy to learn more. By continuing to use the site, you agree to this use of cookies and data.
  • In Romania
  • List of Countries
  • For 7 days
  • Water Temperature
  • Satellite Maps
  • Weather Map
  • Weather Widgets
  • user-avatar
    Login

    Hourly Weather Dektyarka

    Today, 17 January, Thursday

    Time Temperature Precipitation Wind Pressure Humidity
    00:00 -8°C° 0 mm 4 mps 729 mmHg 91%
    01:00 -8°C° 0 mm 4 mps 729 mmHg 90%
    02:00 -8°C° 0 mm 4 mps 730 mmHg 89%
    03:00 -9°C° 0 mm 4 mps 730 mmHg 89%
    04:00 -9°C° 0 mm 4 mps 730 mmHg 88%
    05:00 -9°C° 0 mm 3 mps 730 mmHg 88%
    06:00 -10°C° 0 mm 3 mps 730 mmHg 89%
    07:00 -10°C° 0 mm 3 mps 730 mmHg 90%
    08:00 -12°C° 0 mm 3 mps 729 mmHg 91%
    09:00 -12°C° 0.1 mm 4 mps 729 mmHg 91%
    10:00 -12°C° 0.1 mm 4 mps 728 mmHg 91%
    11:00 -12°C° 0.1 mm 5 mps 728 mmHg 90%
    12:00 -11°C° 0.5 mm 5 mps 727 mmHg 91%
    13:00 -11°C° 0.5 mm 5 mps 726 mmHg 91%
    14:00 -8°C° 0 mm 5 mps 725 mmHg 91%
    15:00 -8°C° 0.5 mm 6 mps 724 mmHg 90%
    16:00 -5°C° 0.5 mm 6 mps 724 mmHg 90%
    17:00 -4°C° 0.5 mm 6 mps 723 mmHg 89%
    18:00 -4°C° 0.5 mm 6 mps 722 mmHg 88%
    19:00 -3°C° 0.5 mm 6 mps 722 mmHg 88%
    20:00 -2°C° 0.5 mm 7 mps 721 mmHg 87%
    21:00 -2°C° 0.6 mm 6 mps 721 mmHg 88%
    22:00 -2°C° 0.6 mm 6 mps 721 mmHg 88%
    23:00 -2°C° 0.6 mm 6 mps 720 mmHg 88%

    Tomorrow, 18 January, Friday

    Time Temperature Precipitation Wind Pressure Humidity
    00:00 -2°C° 0.2 mm 6 mps 721 mmHg 87%
    01:00 -2°C° 0.2 mm 6 mps 722 mmHg 86%
    02:00 -2°C° 0.2 mm 6 mps 722 mmHg 86%
    03:00 -3°C° 0 mm 6 mps 723 mmHg 85%
    04:00 -4°C° 0 mm 6 mps 724 mmHg 84%
    05:00 -4°C° 0 mm 5 mps 724 mmHg 83%
    06:00 -5°C° 0 mm 5 mps 725 mmHg 83%
    07:00 -6°C° 0 mm 5 mps 726 mmHg 84%
    08:00 -6°C° 0 mm 5 mps 726 mmHg 85%
    09:00 -7°C° 0.1 mm 5 mps 727 mmHg 83%
    10:00 -8°C° 0.1 mm 5 mps 728 mmHg 82%
    11:00 -8°C° 0.1 mm 5 mps 729 mmHg 81%
    12:00 -10°C° 0 mm 5 mps 729 mmHg 83%
    13:00 -9°C° 0 mm 4 mps 730 mmHg 84%
    14:00 -9°C° 0 mm 3 mps 730 mmHg 86%
    15:00 -10°C° 0 mm 3 mps 731 mmHg 88%
    16:00 -12°C° 0 mm 3 mps 731 mmHg 90%
    17:00 -12°C° 0 mm 2 mps 731 mmHg 92%
    18:00 -13°C° 0 mm 2 mps 731 mmHg 94%
    19:00 -13°C° 0 mm 2 mps 731 mmHg 95%
    20:00 -14°C° 0 mm 2 mps 731 mmHg 96%
    21:00 -14°C° 0 mm 2 mps 731 mmHg 95%
    22:00 -14°C° 0 mm 2 mps 731 mmHg 95%
    23:00 -13°C° 0 mm 2 mps 731 mmHg 95%

    Day after tomorrow, 19 January, Saturday

    Time Temperature Precipitation Wind Pressure Humidity
    00:00 -14°C° 0 mm 2 mps 731 mmHg 96%
    01:00 -15°C° 0 mm 2 mps 732 mmHg 96%
    02:00 -15°C° 0 mm 2 mps 732 mmHg 97%
    03:00 -14°C° 0.1 mm 2 mps 732 mmHg 95%
    04:00 -14°C° 0.1 mm 3 mps 733 mmHg 94%
    05:00 -13°C° 0.1 mm 3 mps 733 mmHg 93%
    06:00 -12°C° 0.1 mm 3 mps 733 mmHg 92%
    07:00 -12°C° 0.1 mm 3 mps 733 mmHg 91%
    08:00 -12°C° 0.1 mm 3 mps 733 mmHg 91%
    09:00 -12°C° 0 mm 3 mps 734 mmHg 90%
    10:00 -12°C° 0 mm 3 mps 734 mmHg 89%
    11:00 -12°C° 0 mm 4 mps 735 mmHg 88%
    12:00 -12°C° 0 mm 3 mps 735 mmHg 89%
    13:00 -12°C° 0 mm 3 mps 735 mmHg 89%
    14:00 -12°C° 0 mm 3 mps 735 mmHg 90%
    15:00 -13°C° 0 mm 3 mps 736 mmHg 91%
    16:00 -13°C° 0 mm 3 mps 736 mmHg 92%
    17:00 -14°C° 0 mm 3 mps 736 mmHg 93%
    18:00 -14°C° 0 mm 3 mps 736 mmHg 94%
    19:00 -14°C° 0 mm 3 mps 737 mmHg 94%
    20:00 -15°C° 0 mm 3 mps 737 mmHg 94%
    21:00 -15°C° 0 mm 3 mps 737 mmHg 94%
    22:00 -15°C° 0 mm 3 mps 737 mmHg 95%
    23:00 -15°C° 0 mm 3 mps 738 mmHg 95%

    20 January, Sunday

    Time Temperature Precipitation Wind Pressure Humidity
    00:00 -14°C° 0 mm 3 mps 738 mmHg 94%
    01:00 -13°C° 0 mm 3 mps 738 mmHg 94%
    02:00 -13°C° 0 mm 3 mps 738 mmHg 94%
    03:00 -12°C° 0 mm 3 mps 737 mmHg 93%
    04:00 -11°C° 0 mm 4 mps 737 mmHg 92%
    05:00 -9°C° 0 mm 4 mps 736 mmHg 91%
    06:00 -9°C° 0.3 mm 4 mps 736 mmHg 90%
    07:00 -10°C° 0.3 mm 5 mps 735 mmHg 90%
    08:00 -10°C° 0.3 mm 5 mps 735 mmHg 89%
    09:00 -8°C° 0.2 mm 5 mps 735 mmHg 87%
    10:00 -8°C° 0.2 mm 5 mps 734 mmHg 85%
    11:00 -7°C° 0.2 mm 5 mps 734 mmHg 83%
    12:00 -8°C° 0.1 mm 5 mps 734 mmHg 83%
    13:00 -8°C° 0.1 mm 5 mps 735 mmHg 82%
    14:00 -10°C° 0.1 mm 5 mps 735 mmHg 82%
    15:00 -10°C° 0 mm 5 mps 735 mmHg 84%
    16:00 -10°C° 0 mm 4 mps 735 mmHg 87%
    17:00 -11°C° 0 mm 4 mps 736 mmHg 89%
    18:00 -12°C° 0 mm 4 mps 736 mmHg 91%
    19:00 -12°C° 0 mm 3 mps 736 mmHg 92%
    20:00 -13°C° 0 mm 3 mps 737 mmHg 93%
    21:00 -14°C° 0 mm 3 mps 737 mmHg 94%
    22:00 -15°C° 0 mm 3 mps 737 mmHg 94%
    23:00 -16°C° 0 mm 3 mps 738 mmHg 94%

    21 January, Monday

    Time Temperature Precipitation Wind Pressure Humidity
    00:00 -16°C° 0 mm 3 mps 738 mmHg 95%
    01:00 -17°C° 0 mm 3 mps 738 mmHg 95%
    02:00 -16°C° 0 mm 2 mps 738 mmHg 96%
    03:00 -16°C° 0 mm 2 mps 738 mmHg 96%
    04:00 -16°C° 0 mm 2 mps 738 mmHg 96%
    05:00 -17°C° 0 mm 2 mps 738 mmHg 97%
    06:00 -17°C° 0 mm 2 mps 738 mmHg 97%
    07:00 -17°C° 0 mm 2 mps 738 mmHg 96%
    08:00 -17°C° 0 mm 2 mps 738 mmHg 96%
    09:00 -17°C° 0 mm 2 mps 738 mmHg 96%
    10:00 -17°C° 0 mm 2 mps 739 mmHg 95%
    11:00 -16°C° 0 mm 2 mps 739 mmHg 94%
    12:00 -16°C° 0 mm 2 mps 739 mmHg 94%
    13:00 -16°C° 0 mm 2 mps 739 mmHg 94%
    14:00 -16°C° 0 mm 2 mps 739 mmHg 94%
    15:00 -18°C° 0 mm 3 mps 739 mmHg 94%
    16:00 -18°C° 0 mm 3 mps 739 mmHg 95%
    17:00 -18°C° 0 mm 3 mps 740 mmHg 95%
    18:00 -18°C° 0 mm 3 mps 740 mmHg 95%
    19:00 -19°C° 0 mm 3 mps 740 mmHg 95%
    20:00 -19°C° 0 mm 3 mps 740 mmHg 95%
    21:00 -19°C° 0 mm 3 mps 740 mmHg 95%
    22:00 -19°C° 0 mm 3 mps 740 mmHg 95%
    23:00 -19°C° 0 mm 3 mps 740 mmHg 95%

    22 January, Tuesday

    Time Temperature Precipitation Wind Pressure Humidity
    00:00 -21°C° 0 mm 3 mps 741 mmHg 95%
    01:00 -21°C° 0 mm 3 mps 741 mmHg 96%
    02:00 -21°C° 0 mm 3 mps 741 mmHg 96%
    03:00 -21°C° 0 mm 3 mps 741 mmHg 96%
    04:00 -21°C° 0 mm 3 mps 742 mmHg 96%
    05:00 -19°C° 0 mm 2 mps 742 mmHg 96%
    06:00 -19°C° 0 mm 2 mps 742 mmHg 96%
    07:00 -19°C° 0 mm 2 mps 742 mmHg 96%
    08:00 -18°C° 0 mm 2 mps 743 mmHg 96%
    09:00 -18°C° 0 mm 2 mps 743 mmHg 95%
    10:00 -17°C° 0 mm 2 mps 743 mmHg 95%
    11:00 -16°C° 0 mm 2 mps 744 mmHg 94%
    12:00 -17°C° 0 mm 3 mps 744 mmHg 94%
    13:00 -17°C° 0 mm 3 mps 744 mmHg 94%
    14:00 -16°C° 0 mm 3 mps 744 mmHg 94%
    15:00 -17°C° 0 mm 3 mps 744 mmHg 94%
    16:00 -18°C° 0 mm 3 mps 744 mmHg 95%
    17:00 -19°C° 0 mm 3 mps 744 mmHg 96%
    18:00 -19°C° 0 mm 2 mps 744 mmHg 97%
    19:00 -19°C° 0 mm 2 mps 744 mmHg 97%
    20:00 -20°C° 0 mm 2 mps 744 mmHg 97%
    21:00 -21°C° 0 mm 2 mps 744 mmHg 98%
    22:00 -21°C° 0 mm 2 mps 744 mmHg 98%
    23:00 -23°C° 0 mm 2 mps 745 mmHg 98%
    Show more